CAPE
0 0 0 0 0 0 0 0 0 0 0 0 0 4 31 174 24 3 0 0 0 0 62 188 668 885 883 861 616 718 650 424 215 149 22 10 14 12 22 12 10 9 8
0 0 0 0 0 0 0 0 0 0 0 0 0 0 0 32 118 107 2 2 1 0 0 111 285 1155 1178 1022 970 1009 906 883 680 573 372 177 36 89 77 87 85 84 86
0 0 0 0 0 0 0 0 0 0 0 0 0 0 0 0 0 3 46 68 5 0 1 7 452 1255 1301 947 903 1261 1249 1246 1089 872 776 639 562 554 238 168 180 223 239
0 0 0 0 0 0 0 0 0 0 0 0 0 0 0 0 0 0 0 0 47 5 0 12 52 927 1196 1198 564 949 1294 1323 1267 936 973 736 624 598 481 444 453 341 323
0 0 0 0 0 0 0 0 0 0 0 0 0 0 0 0 0 0 0 0 0 0 9 0 2 15 113 1010 825 837 1146 1136 1057 1276 1042 829 803 800 708 447 450 341 425
0 0 0 0 0 0 0 0 0 0 0 0 0 0 0 0 0 0 0 0 0 0 0 0 0 0 2 94 404 1113 1089 1035 920 866 950 945 977 1049 891 769 640 566 560
0 0 0 0 0 0 0 0 0 0 0 0 0 0 0 0 0 0 0 0 5 20 7 0 0 0 0 12 128 496 663 655 769 763 828 963 847 601 348 632 770 669 625
0 0 0 0 0 0 0 0 0 0 0 0 0 0 1 0 0 0 0 0 1 13 23 47 69 0 0 0 19 112 55 175 281 353 554 683 560 369 385 357 566 632 656
0 0 0 0 0 0 0 0 0 0 0 0 0 2 7 12 0 0 0 0 11 5 59 61 75 100 8 0 0 4 0 16 72 157 277 571 601 511 502 505 537 761 741
0 0 0 0 0 0 0 0 0 0 0 0 0 0 0 5 9 1 0 0 8 39 36 70 61 72 164 129 154 55 6 0 58 125 352 459 497 510 572 633 600 686 826
0 0 0 0 0 0 0 1 0 0 0 0 0 0 0 0 0 2 2 0 0 15 38 69 86 17 25 259 199 114 53 26 257 464 790 733 676 642 508 336 103 29 13
0 0 0 0 0 0 0 1 0 0 0 0 0 0 0 3 0 1 3 1 0 0 15 46 19 15 11 67 279 199 119 33 197 375 735 732 472 153 36 0 0 8 10
0 0 0 0 0 0 0 0 0 0 0 0 0 0 0 0 13 40 51 28 0 0 5 30 32 11 10 2 6 0 11 0 11 88 379 272 117 19 0 0 2 2 4
2 0 1 0 0 0 0 0 0 0 0 0 0 0 0 0 0 37 50 45 3 0 0 13 0 0 0 0 0 0 0 0 0 4 5 0 1 2 3 3 2 2 2
0 0 0 0 0 0 0 0 0 0 0 0 0 0 0 0 0 0 7 24 39 23 2 0 10 0 0 0 0 0 0 0 0 0 1 0 3 0 1 1 1 2 2
0 0 0 0 0 0 0 0 0 0 0 0 0 0 0 0 0 0 0 0 0 2 18 0 6 0 0 0 0 0 0 0 2 3 2 0 0 0 0 0 0 0 0
0 0 0 0 0 0 0 0 0 0 0 0 0 0 0 0 0 0 0 0 0 2 26 12 0 0 0 0 0 0 0 0 0 1 1 0 1 1 1 1 1 0 0
0 0 0 0 0 0 0 0 0 0 0 0 0 0 0 0 0 0 0 0 0 0 0 0 0 0 0 0 0 0 0 0 0 0 0 0 0 1 1 3 4 6 6
0 0 0 0 0 0 0 0 0 0 0 0 0 0 0 0 0 0 0 0 0 0 0 0 0 0 0 0 0 0 0 0 0 0 1 2 0 2 7 5 1 0 1
0 0 0 0 0 0 0 0 0 0 0 0 1 4 4 2 0 0 1 0 1 0 0 0 0 0 0 0 0 0 0 0 0 0 0 0 3 6 7 7 1 0 0
0 0 0 0 0 0 0 0 0 0 0 0 0 0 1 0 0 0 0 0 0 0 0 0 1 3 0 0 0 0 0 0 0 0 0 0 0 0 0 3 2 2 3
0 0 0 0 0 0 0 0 0 0 0 0 0 0 0 0 0 1 0 0 0 0 0 0 0 0 0 0 0 0 0 0 0 0 0 0 0 0 0 0 0 4 2
0 0 0 0 0 0 0 0 0 0 0 0 0 0 0 0 0 0 1 0 0 0 0 0 0 0 0 0 0 0 0 0 0 0 0 0 0 0 0 0 0 3 0
0 0 0 0 0 0 0 0 0 0 0 0 0 0 0 0 0 0 0 0 0 0 0 0 0 0 0 0 0 0 0 0 0 0 0 0 0 0 0 0 0 2 0
0 0 0 0 0 0 0 0 0 0 0 0 0 0 0 0 0 0 0 0 0 0 0 0 0 0 0 0 0 0 0 0 0 0 0 0 0 0 0 0 0 0 0
0 0 0 0 0 0 0 0 0 0 0 0 0 0 0 0 0 0 0 0 0 0 0 0 0 0 0 0 0 0 0 0 0 0 0 0 0 0 0 0 0 0 0
CIN
0 0 0 0 0 0 0 0 0 0 0 0 0 -1 -115 -37 -157 -76 -18 0 0 -17 -59 -21 -7 0 0 0 0 0 0 0 0 -10 -8 0 -2 0 0 0 0 0 0
0 0 0 0 0 0 0 0 0 0 0 0 0 0 0 -43 -82 -53 -25 -41 -82 -36 -54 -36 -11 0 0 0 0 0 0 0 0 0 -1 0 -1 -2 -9 -23 -34 -45 -35
0 0 0 0 0 0 0 0 0 0 0 0 0 0 0 0 0 -1 -8 -70 -63 0 -70 -53 -13 0 0 0 0 0 0 0 0 0 0 0 0 0 0 0 0 -1 -1
0 0 0 0 0 0 0 0 0 0 0 0 0 0 0 0 0 0 0 0 -1 -30 0 -105 -52 0 0 0 0 0 0 0 0 -1 0 0 0 -1 0 0 0 0 0
0 0 0 0 0 0 0 0 0 0 0 0 0 0 0 0 0 0 0 0 0 0 -43 0 -115 -45 -15 -1 0 0 0 0 0 0 -1 0 0 0 0 0 0 0 0
0 0 0 0 0 0 0 0 0 0 0 0 0 0 0 0 0 0 0 0 0 0 0 0 0 0 -19 -69 -13 0 0 0 -1 -1 0 -1 0 0 0 0 0 0 0
0 0 0 0 0 0 0 0 0 0 0 0 0 0 0 0 0 0 0 0 -51 -46 -15 0 0 0 0 -90 -40 -1 -1 0 0 -1 -1 0 -2 -4 -4 0 0 0 0
0 0 0 0 0 0 0 0 0 0 0 0 0 0 -3 0 0 0 0 0 -19 -74 -73 -57 -24 0 0 0 -112 -64 -52 -1 -1 -1 0 -1 -1 -5 -1 0 0 0 0
0 0 0 0 0 0 0 0 0 0 0 0 0 -2 -3 -3 0 0 0 0 -61 -97 -51 -66 -56 -37 -10 0 0 -95 0 -67 -39 -7 -1 0 -1 0 0 0 0 0 0
0 0 0 0 0 0 0 0 0 0 0 0 0 0 -1 0 -1 -2 0 0 -93 -35 -60 -75 -90 -76 -50 -59 -80 -145 -130 0 -36 -13 0 0 0 -1 0 0 0 0 0
0 0 0 0 0 0 0 -30 0 0 0 0 0 0 0 0 0 -4 0 0 0 -51 -78 -63 -98 -144 -96 -55 -105 -112 -126 -103 -19 -1 0 0 0 0 -3 -1 -3 -9 0
0 0 0 0 0 0 0 -25 0 0 0 0 0 0 0 0 0 -3 -4 -3 0 0 -54 -88 -74 -139 -62 -98 -77 -94 -95 -130 -31 -9 0 0 -1 -2 -6 0 0 -1 0
-6 0 0 0 0 0 0 0 0 0 0 0 0 0 0 0 -8 0 0 0 0 0 -36 -66 -81 -111 -108 -153 -71 -41 -76 -1 -65 -55 -2 -1 -6 -5 0 0 0 0 0
-15 -2 -14 0 0 0 0 0 0 0 0 0 0 0 0 0 0 -2 0 0 -11 0 -7 -46 0 0 -5 0 0 0 0 0 0 -9 -5 0 0 0 0 0 0 0 0
0 0 0 0 0 0 0 0 0 0 0 0 0 0 0 0 0 0 -21 -10 -3 -6 -65 0 -48 0 0 0 0 0 0 0 0 0 0 0 0 0 0 0 0 0 0
0 0 0 0 0 0 -21 0 0 0 0 0 0 0 0 0 0 0 0 -20 0 -12 -1 0 -42 0 0 0 0 0 0 0 0 0 0 0 0 0 0 0 0 0 0
0 0 0 0 0 0 0 0 0 0 0 0 0 0 0 0 0 0 0 0 0 -17 -23 -42 0 0 0 0 0 0 0 0 0 0 0 0 0 0 0 0 0 0 0
0 0 0 0 0 0 0 0 0 0 0 0 0 0 0 0 0 0 0 0 0 0 0 0 0 0 0 0 0 0 0 0 0 0 0 0 0 0 0 0 0 0 0
0 0 0 0 0 0 0 0 0 0 -5 0 -3 -9 -9 -5 -1 0 0 0 0 0 0 0 0 0 0 0 0 0 0 0 0 0 0 0 0 0 -1 0 -5 -5 0
0 0 0 0 0 0 0 0 0 0 0 0 -10 -8 -9 -8 -1 0 -7 0 -2 -3 0 -1 0 0 -10 0 0 0 0 0 0 0 0 0 -2 -1 -1 0 0 0 0
0 0 0 0 0 0 0 0 0 0 0 0 0 0 -22 0 0 -15 -3 -5 0 0 -4 -3 -12 -10 -2 0 0 0 0 0 0 0 0 0 0 0 -1 0 0 -1 -1
0 0 0 0 0 0 0 0 0 0 0 0 0 0 0 0 0 0 0 0 0 0 0 0 0 0 0 0 0 0 0 0 0 0 0 0 0 0 0 0 0 -1 -1
0 0 0 0 0 0 0 0 0 0 0 0 0 0 0 0 0 0 -7 0 0 0 0 0 0 0 0 0 0 0 0 0 0 0 0 0 0 0 0 0 0 -1 0
0 0 0 0 0 0 0 0 0 0 0 0 0 0 0 0 0 0 0 0 0 0 0 0 0 0 0 0 0 0 0 0 0 0 0 0 0 0 0 0 -1 0 0
0 0 0 0 0 0 0 0 0 0 0 0 0 0 0 0 0 0 0 0 0 0 0 0 0 0 0 0 0 0 0 0 0 0 0 0 0 0 0 0 0 0 0
0 0 0 0 0 0 0 0 0 0 0 0 0 0 0 0 0 0 0 0 0 0 0 0 0 0 0 0 0 0 0 0 0 0 0 0 0 0 0 0 0 0 0
Wind_Speed
4 4 4 4 3 4 3 5 5 4 5 5 5 7 8 8 8 5 5 11 14 19 22 25 23 23 24 21 21 19 18 18 19 18 17 16 16 15 15 15 14 14 13
3 4 4 4 4 3 3 3 4 4 5 5 5 5 6 6 7 6 5 6 12 16 20 23 25 24 24 24 23 21 20 20 20 19 18 18 17 16 16 16 16 15 15
4 4 3 4 4 4 5 4 4 3 4 4 5 6 5 6 5 6 6 6 6 11 16 22 25 25 24 25 24 23 22 21 20 20 19 18 17 17 17 17 16 16 15
5 4 3 3 4 4 3 3 3 4 4 4 4 5 5 5 6 6 5 6 6 6 10 18 22 24 26 26 27 25 23 23 21 20 20 19 19 18 18 17 17 17 17
5 3 3 3 4 3 3 3 3 2 3 4 5 5 5 5 6 6 6 7 7 8 6 12 15 17 22 25 25 26 23 22 19 20 20 19 18 18 19 19 18 18 18
5 4 4 4 4 3 4 3 3 3 3 4 5 6 5 5 4 5 6 6 7 8 8 9 7 9 20 21 23 25 24 20 19 19 18 17 19 18 18 19 19 19 20
5 5 3 4 3 3 4 4 2 4 3 2 3 5 4 5 5 4 4 5 6 8 6 6 6 6 7 17 24 25 21 21 18 18 17 16 16 16 17 19 20 21 21
5 5 4 4 4 3 5 3 2 3 2 2 2 3 4 5 4 8 4 4 6 5 6 6 7 8 7 6 10 19 22 22 18 18 18 18 14 14 17 19 19 20 21
5 5 5 4 4 2 4 4 3 3 3 3 2 2 4 2 8 3 9 3 6 5 5 6 6 6 7 6 7 9 16 19 22 23 22 21 18 18 18 20 21 20 20
5 5 5 5 4 3 5 4 3 2 1 4 3 0 3 3 3 5 3 5 4 5 8 5 5 6 6 6 7 7 8 13 20 22 21 24 23 25 23 18 19 21 19
4 5 5 5 5 4 4 5 3 3 1 2 1 2 3 3 4 3 6 5 3 4 4 5 5 5 8 5 3 5 11 13 15 16 16 15 15 15 11 8 6 9 12
3 5 5 5 5 4 4 3 3 3 3 4 2 2 3 3 3 4 3 5 5 4 4 7 5 3 7 6 4 8 8 10 12 10 10 10 7 4 5 7 9 10 10
3 4 4 5 3 4 4 4 5 4 3 3 3 3 3 5 6 6 6 5 3 2 3 4 4 5 5 7 6 9 7 5 6 6 7 4 9 10 10 9 10 10 10
3 5 5 4 5 5 3 4 3 3 3 4 5 4 4 5 5 5 4 3 4 1 1 4 2 1 3 3 7 12 9 15 13 12 14 16 16 16 14 12 11 10 9
4 5 5 4 5 4 4 3 2 4 4 4 4 4 3 3 4 4 4 3 2 4 4 3 3 3 3 5 7 7 8 14 16 17 17 16 14 14 13 12 13 11 10
4 5 5 5 5 3 3 3 3 2 4 3 4 5 5 3 4 3 3 3 3 3 2 2 2 3 4 4 7 6 8 11 16 16 15 13 12 13 12 12 12 11 11
5 5 5 5 5 4 3 3 3 3 4 4 4 4 5 5 4 4 4 3 3 1 2 1 2 3 2 4 5 5 5 6 6 13 12 10 10 10 10 10 10 11 11
5 5 5 5 5 5 4 3 3 3 4 6 5 4 5 3 5 4 4 5 4 4 2 2 1 2 3 2 2 4 4 5 4 8 9 9 8 8 8 8 9 12 12
6 6 5 5 5 5 4 3 4 5 4 5 5 5 5 4 4 2 3 4 3 2 2 1 3 1 1 2 2 3 3 4 4 8 9 8 6 6 7 9 11 11 11
6 6 6 5 5 5 4 2 4 5 5 5 5 5 4 3 4 5 5 5 4 4 4 3 3 3 2 1 2 2 2 3 3 3 5 6 2 4 6 7 8 10 10
6 6 6 6 6 5 4 5 3 5 5 6 5 4 3 2 4 5 3 3 3 3 3 3 3 2 1 2 2 2 1 2 1 3 2 3 2 2 3 6 4 6 7
6 6 6 6 6 4 8 9 7 4 5 5 5 5 5 4 3 5 3 2 3 2 2 1 2 2 1 1 1 1 1 2 2 3 3 3 3 2 2 3 8 8 9
5 6 7 6 7 6 11 12 10 5 5 5 5 5 4 3 4 4 5 3 3 3 1 1 4 3 3 0 1 2 1 0 2 3 3 3 3 3 3 4 7 4 4
6 6 7 7 6 6 12 12 11 6 5 6 6 6 6 6 5 5 4 5 4 2 2 1 1 1 2 2 1 1 0 2 2 0 3 2 3 2 3 3 1 3 6
5 6 6 7 7 7 11 12 9 5 6 7 6 6 6 6 8 8 4 5 5 4 3 2 2 4 4 3 3 3 1 1 2 2 0 1 1 3 2 3 2 3 7
7 5 7 7 10 8 11 13 10 4 6 5 5 6 12 10 13 11 6 5 6 8 5 3 1 2 2 2 1 1 3 2 2 1 2 2 1 1 3 2 2 1 3
Wind_Direction
342 332 337 346 349 346 347 335 333 326 314 302 288 292 287 271 262 249 254 250 251 255 257 251 247 238 236 232 233 234 233 234 239 241 242 243 244 248 249 252 249 249 254
355 4 353 352 355 351 341 337 329 323 316 316 302 290 286 284 277 274 258 264 256 257 263 258 255 243 239 237 235 234 231 230 231 236 241 244 247 247 251 255 258 256 256
355 348 337 340 332 328 330 336 332 331 332 322 306 300 291 282 275 275 273 271 268 260 259 269 263 243 238 241 242 236 232 231 231 232 233 236 240 241 245 251 256 259 259
345 339 338 335 324 331 336 344 338 330 326 320 305 294 291 282 277 273 275 272 265 256 259 252 257 257 238 234 240 244 238 234 229 230 233 234 236 241 246 249 251 254 258
353 5 334 313 326 334 338 335 327 310 310 307 304 299 289 280 273 280 274 275 273 266 253 248 242 251 273 254 241 246 245 245 243 230 234 238 241 243 250 254 253 256 257
321 316 313 318 341 345 341 346 323 319 276 290 305 296 281 282 271 263 261 266 272 272 262 255 244 238 235 250 267 250 250 249 243 255 235 233 240 244 250 258 259 255 254
322 320 307 317 327 329 314 317 299 306 305 314 320 311 265 278 287 300 302 279 280 279 270 256 253 249 242 235 237 248 255 257 251 256 253 239 243 251 262 260 260 260 258
325 313 318 304 308 313 323 324 335 318 286 336 314 282 328 318 6 322 288 297 287 301 283 269 258 246 246 227 229 235 244 253 265 261 259 251 245 255 265 262 258 262 260
329 327 318 310 311 283 290 305 312 309 305 303 357 284 331 339 335 315 307 305 313 304 304 295 277 268 257 235 235 226 226 237 255 263 276 260 250 258 268 267 266 272 261
334 332 329 326 315 322 306 278 268 258 266 311 329 297 267 276 305 315 322 300 301 314 327 324 331 312 261 234 220 225 224 225 235 246 253 261 263 268 269 265 271 269 268
343 326 335 341 331 313 286 274 314 317 251 262 272 323 293 259 246 259 303 315 313 312 300 307 312 356 326 285 226 233 231 229 236 237 252 268 271 275 278 307 342 354 355
327 333 331 322 313 309 313 324 327 314 298 267 270 288 266 288 289 274 268 294 283 290 315 311 335 347 297 309 292 259 248 250 256 256 263 270 291 331 39 17 6 6 8
296 307 310 313 307 317 338 354 337 321 299 298 308 283 259 266 272 279 284 286 284 322 320 291 297 341 344 333 346 9 357 298 282 285 295 285 83 66 49 37 36 28 23
271 307 278 298 317 315 351 4 343 330 320 321 309 289 280 273 276 277 281 290 310 302 301 273 301 72 294 355 18 40 42 55 61 70 72 71 69 68 63 54 46 35 21
278 270 289 306 306 323 344 343 330 342 353 352 330 317 304 301 292 285 276 260 259 311 307 289 295 13 29 32 30 54 60 58 66 69 68 67 69 70 66 62 52 40 34
270 278 285 295 297 312 313 324 316 349 353 339 328 331 327 312 331 335 319 279 223 213 267 239 37 13 19 28 34 58 58 55 60 59 61 68 74 68 64 60 52 50 46
265 267 277 282 296 295 291 307 327 311 332 320 314 322 316 324 327 340 341 345 355 341 280 316 34 358 69 49 41 57 52 56 58 57 59 59 74 72 72 67 64 61 60
267 261 270 283 293 298 299 306 311 307 315 311 301 305 309 320 332 339 340 341 338 337 352 288 328 342 24 27 72 77 45 56 46 68 72 79 88 85 82 77 71 62 53
258 265 267 276 288 291 310 325 327 302 303 297 292 299 301 299 301 284 309 316 314 316 323 298 289 307 311 3 31 51 62 43 35 38 48 55 60 69 82 91 90 74 51
251 257 259 264 268 278 293 287 320 315 304 300 298 296 306 328 318 309 300 301 304 296 283 267 253 261 223 113 84 39 12 44 13 1 17 12 30 68 62 84 70 72 53
246 249 259 262 260 256 251 243 259 295 305 303 294 282 272 284 306 301 310 321 323 302 309 298 287 288 19 11 20 9 357 1 83 28 332 320 328 7 38 68 50 32 8
248 248 250 248 256 249 250 256 244 251 276 286 296 305 302 256 291 288 275 348 8 335 304 294 296 312 11 1 19 352 4 355 309 55 3 314 23 351 11 37 351 12 13
246 247 249 246 251 249 258 261 256 235 252 266 267 274 285 267 285 291 266 270 309 338 24 221 274 260 279 141 10 340 32 337 279 345 21 299 19 327 359 333 308 307 7
236 240 245 245 250 252 254 256 251 236 239 251 253 254 249 259 260 274 296 271 253 300 321 325 263 156 135 114 103 124 148 290 308 281 29 273 355 286 327 302 213 80 28
238 235 233 243 241 257 248 254 248 233 241 250 250 249 237 248 256 258 256 266 271 257 272 225 181 162 144 118 119 119 213 118 259 206 250 219 319 294 297 290 42 62 26
238 228 246 232 238 252 247 250 244 215 239 239 245 245 252 234 247 239 227 231 247 244 207 206 237 168 93 175 122 151 162 170 198 312 228 179 286 326 335 280 305 349 359